Location: ?????????
(54.7630°N, 39.4991°E)
Time: 09:41:17
(UTC+00:00)

Ariane Rocket - Pass Details

Date: 14 April 2026
Orbit: 755 x 763 km, 98.4° (Epoch: 19 May)

Event Time Altitude Azimuth Distance (km) Brightness Sun altitude
Exits shadow 17:49:36 16° 123° (ESE) 1,879 4.3 -11.8°
Maximum altitude 17:53:06 39° 63° (ENE) 1,129 3.7 -12.2°
Drops below altitude 10° 17:57:46 10° 355° (N) 2,298 6.1 -12.8°
Sets 18:00:12 0° 348° (NNW) 3,229 7.1 -13.0°
